Starlink 31385

operational
NORAD ID: 58985 Int'l Des: 2024-031 Owner: SPXS Country: US Constellation: starlink
LEOCIRCULAR

Starlink 31385について

説明を読み込み中...

リアルタイム位置

3D地球を読み込み中...

次回通過

高度履歴

Altitude vs Time

uPlot chart will show altitude changes over time

軌道要素

1 58985U 24031W 26035.31819662 -.00000738 00000-0 -12790-4 0 9990
2 58985 53.1589 89.5460 0001806 97.5912 262.5294 15.30182734111432
Epoch: Feb 4, 2026 • Age: 5 hours

現在のステータス

高度 479.7 km
速度 7.63 km/s
衛星直下点 48.64°N, 177.92°W
打ち上げ日 Feb 15, 2024
運用期間 1.9 years
タイプ internet

技術仕様

分類 Payload
質量 730.00 kg
乾燥質量 700.00 kg
総質量 730.00 kg
長さ 0.30 m
直径 4.10 m
スパン 29.00 m
形状 Box + pan
製造者 SPXS
バスタイプ Starlink V2M
フェーズステータス In Orbit
所有者/国 SPXS/US

大規模コンステレーション

Loading constellations...